SAS430 EKCH-ESGG

Flight info

Callsign SAS430
Flight time 0h 30m
Altitude 24000
Route VEDAR L997 RISMA
Aircraft A319/M-SDE3FGHIRWY/LB1

Departure

Time 2026-05-06 09:43
Airport Copenhagen Kastrup Airport (EKCH)

Arrival

Time 2026-05-06 10:14
Airport Göteborg Landvetter Airport (ESGG)
Time Latitude Longitude Altitude Speed Heading
2026-05-06 09:16 55.62696 12.64583 17 ft 0 kts 282°
2026-05-06 09:27 55.62696 12.64584 17 ft 0 kts 282°
2026-05-06 09:33 55.62695 12.64594 17 ft 4 kts 283°
2026-05-06 09:33 55.62688 12.64640 19 ft 4 kts 288°
2026-05-06 09:34 55.62679 12.64685 17 ft 4 kts 291°
2026-05-06 09:34 55.62670 12.64727 18 ft 4 kts 285°
2026-05-06 09:34 55.62669 12.64735 17 ft 3 kts 282°
2026-05-06 09:34 55.62670 12.64728 17 ft 4 kts 282°
2026-05-06 09:35 55.62667 12.64684 17 ft 4 kts 243°
2026-05-06 09:35 55.62646 12.64669 17 ft 2 kts 192°
2026-05-06 09:35 55.62623 12.64660 17 ft 4 kts 192°
2026-05-06 09:35 55.62617 12.64658 17 ft 2 kts 192°
2026-05-06 09:37 55.62608 12.64656 17 ft 6 kts 187°
2026-05-06 09:38 55.62545 12.64653 17 ft 11 kts 180°
2026-05-06 09:38 55.62461 12.64667 18 ft 14 kts 171°
2026-05-06 09:38 55.62355 12.64679 17 ft 15 kts 170°
2026-05-06 09:38 55.62287 12.64783 17 ft 10 kts 147°
2026-05-06 09:39 55.62216 12.64779 17 ft 8 kts 202°
2026-05-06 09:39 55.62162 12.64717 18 ft 10 kts 212°
2026-05-06 09:39 55.62082 12.64627 17 ft 16 kts 213°
2026-05-06 09:39 55.61981 12.64523 17 ft 18 kts 199°
2026-05-06 09:40 55.61851 12.64524 19 ft 20 kts 170°
2026-05-06 09:40 55.61725 12.64565 17 ft 17 kts 169°
2026-05-06 09:40 55.61534 12.64406 19 ft 18 kts 213°
2026-05-06 09:41 55.61424 12.64279 17 ft 20 kts 212°
2026-05-06 09:41 55.61302 12.64140 17 ft 22 kts 212°
2026-05-06 09:41 55.61170 12.63987 19 ft 23 kts 213°
2026-05-06 09:41 55.61037 12.63835 17 ft 23 kts 212°
2026-05-06 09:42 55.60915 12.63695 19 ft 12 kts 213°
2026-05-06 09:42 55.60839 12.63608 17 ft 19 kts 208°
2026-05-06 09:42 55.60732 12.63697 17 ft 20 kts 131°
2026-05-06 09:42 55.60699 12.63896 19 ft 20 kts 59°
2026-05-06 09:43 55.60927 12.64261 18 ft 73 kts 41°
2026-05-06 09:43 55.61451 12.65076 17 ft 127 kts 41°
2026-05-06 09:43 55.62206 12.66222 354 ft 144 kts 40°
2026-05-06 09:43 55.62967 12.67365 1116 ft 144 kts 42°
2026-05-06 09:44 55.63729 12.68534 1862 ft 148 kts 43°
2026-05-06 09:44 55.64623 12.69611 2306 ft 166 kts 28°
2026-05-06 09:44 55.65845 12.69802 2623 ft 197 kts 347°
2026-05-06 09:44 55.67178 12.68649 2947 ft 227 kts 334°
2026-05-06 09:45 55.68631 12.67195 3488 ft 252 kts 333°
2026-05-06 09:45 55.70196 12.65591 4308 ft 265 kts 332°
2026-05-06 09:45 55.71804 12.63931 5338 ft 270 kts 332°
2026-05-06 09:45 55.73444 12.62241 6364 ft 276 kts 332°
2026-05-06 09:46 55.75155 12.60829 6962 ft 276 kts 343°
2026-05-06 09:46 55.76977 12.59753 8002 ft 277 kts 342°
2026-05-06 09:46 55.78830 12.58622 9018 ft 280 kts 340°
2026-05-06 09:46 55.80664 12.57490 10004 ft 284 kts 339°
2026-05-06 09:47 55.82583 12.56298 10497 ft 304 kts 339°
2026-05-06 09:47 55.84650 12.55018 10934 ft 322 kts 339°
2026-05-06 09:47 55.86793 12.53699 11655 ft 329 kts 339°
2026-05-06 09:47 55.88976 12.52356 12460 ft 334 kts 339°
2026-05-06 09:48 55.91190 12.51000 13267 ft 339 kts 339°
2026-05-06 09:48 55.93438 12.49625 14022 ft 343 kts 339°
2026-05-06 09:48 55.95706 12.48235 14717 ft 347 kts 338°
2026-05-06 09:48 55.98002 12.46820 15411 ft 351 kts 338°
2026-05-06 09:49 56.00324 12.45390 16111 ft 354 kts 338°
2026-05-06 09:49 56.02674 12.43948 16822 ft 358 kts 338°
2026-05-06 09:49 56.05071 12.42613 17498 ft 363 kts 341°
2026-05-06 09:49 56.07533 12.41440 18187 ft 368 kts 341°
2026-05-06 09:50 56.09996 12.40344 18765 ft 372 kts 342°
2026-05-06 09:50 56.12530 12.39258 19348 ft 376 kts 342°
2026-05-06 09:50 56.15094 12.38166 19929 ft 380 kts 342°
2026-05-06 09:50 56.17677 12.37054 20514 ft 384 kts 342°
2026-05-06 09:51 56.20285 12.35920 21086 ft 387 kts 341°
2026-05-06 09:51 56.22915 12.34761 21646 ft 391 kts 341°
2026-05-06 09:51 56.25572 12.33578 22203 ft 395 kts 341°
2026-05-06 09:51 56.28256 12.32380 22758 ft 399 kts 341°
2026-05-06 09:52 56.30966 12.31171 23304 ft 403 kts 340°
2026-05-06 09:52 56.33704 12.29950 23789 ft 407 kts 340°
2026-05-06 09:52 56.36464 12.28719 24216 ft 411 kts 340°
2026-05-06 09:52 56.39255 12.27470 24647 ft 415 kts 340°
2026-05-06 09:53 56.42039 12.26221 25063 ft 419 kts 340°
2026-05-06 09:53 56.44886 12.24940 25484 ft 423 kts 340°
2026-05-06 09:53 56.47757 12.23645 25851 ft 426 kts 340°
2026-05-06 09:53 56.50632 12.22353 25950 ft 421 kts 340°
2026-05-06 09:54 56.53428 12.21113 25960 ft 407 kts 340°
2026-05-06 09:54 56.56141 12.19911 25966 ft 397 kts 340°
2026-05-06 09:54 56.58803 12.18720 25963 ft 393 kts 339°
2026-05-06 09:54 56.61456 12.17516 25971 ft 392 kts 339°
2026-05-06 09:55 56.64105 12.16304 25970 ft 392 kts 339°
2026-05-06 09:55 56.66749 12.15098 25969 ft 391 kts 339°
2026-05-06 09:55 56.69391 12.13897 25969 ft 391 kts 339°
2026-05-06 09:55 56.72036 12.12694 25971 ft 391 kts 339°
2026-05-06 09:56 56.74675 12.11493 25971 ft 391 kts 339°
2026-05-06 09:56 56.77314 12.10291 25623 ft 392 kts 339°
2026-05-06 09:56 56.79935 12.09094 25192 ft 392 kts 339°
2026-05-06 09:56 56.82570 12.07889 24772 ft 390 kts 339°
2026-05-06 09:57 56.85194 12.06689 24347 ft 388 kts 339°
2026-05-06 09:57 56.87812 12.05494 23905 ft 387 kts 339°
2026-05-06 09:57 56.90414 12.04300 23463 ft 385 kts 339°
2026-05-06 09:57 56.93001 12.03106 22989 ft 382 kts 339°
2026-05-06 09:58 56.94703 12.02322 22690 ft 379 kts 339°
2026-05-06 09:58 56.97251 12.01148 22249 ft 375 kts 339°
2026-05-06 09:58 56.99766 11.99987 21809 ft 371 kts 339°
2026-05-06 09:58 57.02287 11.98819 21372 ft 367 kts 339°
2026-05-06 09:59 57.04774 11.97981 20939 ft 370 kts 349°
2026-05-06 09:59 57.07348 11.97891 20499 ft 370 kts 354°
2026-05-06 09:59 57.09919 11.97887 20054 ft 367 kts 354°
2026-05-06 09:59 57.12469 11.97879 19603 ft 365 kts 354°
2026-05-06 10:00 57.15006 11.97871 19158 ft 362 kts 354°
2026-05-06 10:00 57.17520 11.97861 18711 ft 360 kts 354°
2026-05-06 10:00 57.20822 11.97854 18101 ft 357 kts 355°
2026-05-06 10:00 57.22497 11.97849 17779 ft 355 kts 355°
2026-05-06 10:01 57.24950 11.97841 17340 ft 350 kts 355°
2026-05-06 10:01 57.27345 11.97834 16907 ft 347 kts 355°
2026-05-06 10:01 57.29744 11.97823 16473 ft 343 kts 355°
2026-05-06 10:01 57.32122 11.97807 16039 ft 340 kts 355°
2026-05-06 10:02 57.34467 11.97794 15610 ft 337 kts 356°
2026-05-06 10:02 57.36813 11.97783 15185 ft 334 kts 356°
2026-05-06 10:02 57.39131 11.97774 14757 ft 332 kts 356°
2026-05-06 10:02 57.41434 11.97766 14338 ft 330 kts 356°
2026-05-06 10:03 57.43726 11.97758 13910 ft 328 kts 356°
2026-05-06 10:03 57.46006 11.97745 13469 ft 326 kts 356°
2026-05-06 10:03 57.48264 11.97726 13045 ft 323 kts 357°
2026-05-06 10:03 57.50500 11.97713 12639 ft 320 kts 357°
2026-05-06 10:04 57.52718 11.97706 12226 ft 317 kts 357°
2026-05-06 10:04 57.54913 11.97930 11816 ft 316 kts
2026-05-06 10:04 57.57011 11.99147 11406 ft 317 kts 23°
2026-05-06 10:04 57.58923 12.01007 11221 ft 308 kts 26°
2026-05-06 10:05 57.60810 12.02866 10934 ft 299 kts 26°
2026-05-06 10:05 57.62621 12.04638 10395 ft 296 kts 26°
2026-05-06 10:05 57.64430 12.06402 9906 ft 290 kts 26°
2026-05-06 10:05 57.66201 12.08130 9480 ft 282 kts 26°
2026-05-06 10:06 57.67912 12.09802 9121 ft 273 kts 26°
2026-05-06 10:06 57.69574 12.11433 8780 ft 266 kts 26°
2026-05-06 10:06 57.71169 12.13002 8449 ft 258 kts 27°
2026-05-06 10:06 57.72759 12.14563 8124 ft 257 kts 27°
2026-05-06 10:07 57.74344 12.16122 7792 ft 258 kts 27°
2026-05-06 10:07 57.75935 12.17693 7467 ft 259 kts 28°
2026-05-06 10:07 57.77530 12.19265 7143 ft 259 kts 28°
2026-05-06 10:07 57.79128 12.20843 6802 ft 261 kts 28°
2026-05-06 10:08 57.80741 12.22437 6459 ft 262 kts 28°
2026-05-06 10:08 57.82356 12.24037 6126 ft 262 kts 29°
2026-05-06 10:08 57.83960 12.25622 5991 ft 257 kts 28°
2026-05-06 10:08 57.85414 12.27473 5818 ft 251 kts 45°
2026-05-06 10:09 57.86319 12.30327 5631 ft 262 kts 75°
2026-05-06 10:09 57.86376 12.33719 5445 ft 261 kts 102°
2026-05-06 10:09 57.85726 12.36864 5034 ft 258 kts 123°
2026-05-06 10:09 57.84515 12.39294 4628 ft 252 kts 145°
2026-05-06 10:10 57.83015 12.40644 4484 ft 235 kts 165°
2026-05-06 10:10 57.81442 12.40993 4280 ft 225 kts 182°
2026-05-06 10:10 57.79921 12.40416 3825 ft 223 kts 201°
2026-05-06 10:10 57.78530 12.39175 3378 ft 219 kts 206°
2026-05-06 10:11 57.77140 12.37900 2825 ft 224 kts 206°
2026-05-06 10:11 57.75766 12.36641 2447 ft 211 kts 206°
2026-05-06 10:11 57.74505 12.35487 2123 ft 195 kts 205°
2026-05-06 10:11 57.73333 12.34416 1861 ft 180 kts 205°
2026-05-06 10:12 57.72280 12.33454 1621 ft 155 kts 205°
2026-05-06 10:12 57.71368 12.32622 1414 ft 139 kts 205°
2026-05-06 10:12 57.70521 12.31848 1218 ft 133 kts 205°
2026-05-06 10:12 57.69711 12.31109 1035 ft 130 kts 205°
2026-05-06 10:13 57.68900 12.30370 855 ft 129 kts 205°
2026-05-06 10:13 57.68098 12.29633 654 ft 126 kts 205°
2026-05-06 10:13 57.67303 12.28899 526 ft 122 kts 205°
2026-05-06 10:13 57.66653 12.28312 525 ft 80 kts 206°
2026-05-06 10:14 57.66303 12.27993 521 ft 32 kts 206°
2026-05-06 10:14 57.66154 12.27953 519 ft 19 kts 146°
2026-05-06 10:14 57.66111 12.28131 516 ft 15 kts 78°
2026-05-06 10:14 57.66176 12.28231 518 ft 11 kts 28°
2026-05-06 10:15 57.66245 12.28291 519 ft 12 kts 25°
2026-05-06 10:15 57.66323 12.28362 521 ft 13 kts 26°
2026-05-06 10:15 57.66404 12.28437 522 ft 14 kts 27°
2026-05-06 10:15 57.66507 12.28531 519 ft 18 kts 27°
2026-05-06 10:16 57.66631 12.28644 517 ft 21 kts 25°
2026-05-06 10:16 57.66759 12.28758 519 ft 18 kts 25°
2026-05-06 10:16 57.66829 12.28883 520 ft 13 kts 93°
2026-05-06 10:16 57.66784 12.29058 519 ft 16 kts 117°
2026-05-06 10:17 57.66784 12.29176 526 ft 8 kts 37°
2026-05-06 10:17 57.66800 12.29235 528 ft 4 kts 105°
2026-05-06 10:17 57.66784 12.29292 529 ft 7 kts 116°
2026-05-06 10:17 57.66775 12.29327 529 ft 0 kts 116°